TimeMST,TemperatureF,Dew PointF,Humidity,Sea Level PressureIn,VisibilityMPH,Wind Direction,Wind SpeedMPH,Gust SpeedMPH,PrecipitationIn,Events,Conditions,WindDirDegrees,DateUTC
12:53 AM,46.0,34.0,63,30.15,10.0,South,13.8,21.9,N/A,,Overcast,180,2012-11-20 07:53:00
1:53 AM,45.0,35.1,68,30.14,10.0,South,12.7,19.6,N/A,,Overcast,190,2012-11-20 08:53:00
2:53 AM,46.0,35.1,66,30.14,10.0,SSW,12.7,-,N/A,,Overcast,200,2012-11-20 09:53:00
3:53 AM,46.0,35.1,66,30.14,10.0,South,13.8,20.7,N/A,,Overcast,180,2012-11-20 10:53:00
4:53 AM,46.9,35.1,63,30.13,10.0,South,12.7,17.3,N/A,,Overcast,180,2012-11-20 11:53:00
5:53 AM,46.0,35.1,66,30.14,10.0,South,11.5,-,N/A,,Overcast,180,2012-11-20 12:53:00
6:53 AM,46.0,35.1,66,30.14,10.0,South,10.4,18.4,N/A,,Overcast,190,2012-11-20 13:53:00
7:53 AM,46.9,35.1,63,30.14,10.0,South,10.4,18.4,N/A,,Overcast,190,2012-11-20 14:53:00
8:53 AM,46.0,35.1,66,30.16,10.0,SSW,9.2,-,N/A,,Overcast,210,2012-11-20 15:53:00
9:53 AM,46.9,36.0,66,30.15,10.0,SSW,8.1,-,N/A,,Overcast,210,2012-11-20 16:53:00
10:53 AM,46.9,37.9,71,30.16,10.0,South,6.9,-,0.00,Rain,Light Rain,190,2012-11-20 17:53:00
11:53 AM,46.0,39.9,79,30.14,10.0,SW,8.1,-,0.01,Rain,Light Rain,220,2012-11-20 18:53:00
12:53 PM,46.0,42.1,86,30.10,10.0,Calm,Calm,-,0.02,Rain,Light Rain,0,2012-11-20 19:53:00
1:53 PM,46.0,42.1,86,30.08,10.0,Calm,Calm,-,0.01,Rain,Light Rain,0,2012-11-20 20:53:00
2:53 PM,45.0,43.0,93,30.07,10.0,North,3.5,-,0.00,Rain,Light Rain,10,2012-11-20 21:53:00
3:53 PM,45.0,43.0,93,30.05,10.0,ENE,5.8,-,0.00,,Overcast,70,2012-11-20 22:53:00
4:53 PM,45.0,42.1,90,30.04,10.0,Calm,Calm,-,N/A,,Overcast,0,2012-11-20 23:53:00
5:53 PM,42.1,41.0,96,30.04,10.0,Calm,Calm,-,N/A,,Mostly Cloudy,0,2012-11-21 00:53:00
6:53 PM,41.0,37.9,89,30.04,10.0,Calm,Calm,-,N/A,,Mostly Cloudy,0,2012-11-21 01:53:00
7:53 PM,44.1,35.1,71,30.01,10.0,Calm,Calm,-,N/A,,Overcast,0,2012-11-21 02:53:00
8:53 PM,44.1,36.0,73,30.00,10.0,Calm,Calm,-,N/A,,Overcast,0,2012-11-21 03:53:00
9:53 PM,41.0,37.0,86,30.00,10.0,Calm,Calm,-,N/A,,Overcast,0,2012-11-21 04:53:00
10:53 PM,45.0,33.1,63,29.97,10.0,SSW,4.6,-,N/A,,Overcast,200,2012-11-21 05:53:00
11:53 PM,44.1,32.0,63,29.96,10.0,SSW,3.5,-,N/A,,Mostly Cloudy,200,2012-11-21 06:53:00